Location: Holbach
(51.5399°N, 10.6036°E)
Time: 07:16:12
(UTC+00:00)

SPOT 5 - Pass Details

Date: 18 September 2020
Orbit: 623 x 814 km, 98.3° (Epoch: 22 October)

Event Time Altitude Azimuth Distance (km) Brightness Sun altitude
Exits shadow 20:40:08 65° 22° (NNE) 868 3.2 -28.1°
Drops below altitude 10° 20:44:49 10° 348° (NNW) 2,397 6.3 -28.6°
Sets 20:47:13 0° 347° (NNW) 3,344 7.2 -28.9°
